CAPE
0 16 107 217 365 573 405 423 914 1012 1532 1255 2586 2776 2988 2463 2563 2487 2140 2217 2181 1782
0 136 316 295 318 454 794 1630 623 774 1570 721 0 368 2346 2553 2435 2156 2238 2223 1857 1810
0 0 102 179 504 680 844 965 1551 1941 1460 1068 407 659 2001 2265 2143 1771 1226 984 1491 1707
0 0 17 118 116 280 346 1008 1322 1483 1967 1993 1761 1646 1428 1300 1203 590 23 665 1202 2318
0 12 26 31 49 13 1 2 3 45 1116 1788 1767 1217 335 0 671 519 247 609 1188 1952
0 3 0 14 96 82 0 0 0 0 0 0 1368 1332 575 131 217 0 866 1510 1796 1634
0 0 0 0 0 97 11 0 0 0 0 2 383 1311 1322 1141 1313 1111 1061 1412 1441 1329
0 0 0 0 10 6 11 0 0 0 0 0 0 651 977 1130 1135 996 736 1105 836 1067
1 0 0 0 0 30 0 0 0 0 0 0 0 0 106 43 685 751 662 792 740 189
7 12 8 1 0 1 24 0 0 0 0 0 9 0 0 0 348 408 371 393 204 0
19 0 1 0 3 9 31 29 0 0 0 0 14 0 0 0 0 311 210 190 80 70
0 3 11 0 1 12 25 5 21 14 19 5 30 14 0 0 0 2 232 184 474 202
19 12 3 0 0 2 13 16 43 64 93 70 105 46 20 0 0 0 177 422 558 412
10 16 4 1 0 0 0 0 0 13 150 210 410 156 6 0 0 0 3 656 745 682
CIN
-0 -56 -57 -50 -57 -61 -67 -66 -38 -45 -7 -56 -17 -20 -9 -11 -4 -12 -24 -14 -24 -28
-0 -3 -1 -20 -44 -57 -70 -29 -58 -55 -23 -83 -0 -21 -1 -7 -3 -24 -25 -29 -41 -27
-0 -0 -15 -12 -3 -12 -36 -45 -40 -20 -37 -52 -140 -84 -7 -9 -17 -12 -15 -15 -17 -7
-0 -0 -19 -8 -35 -51 -85 -35 -12 -34 -30 -18 -6 -3 -5 -5 -24 -67 -22 -7 -4 -10
-0 -1 -21 -33 -89 -95 -4 -12 -16 -67 -9 -1 -36 -68 -112 -0 -1 -6 -50 -23 -4 -13
-0 -5 -0 -54 -80 -115 -0 -0 -0 -0 -0 -0 -0 -37 -131 -246 -54 -0 -6 -5 -6 -20
-0 -0 -0 -0 -0 -88 -63 -0 -0 -0 -0 -10 -34 -5 -29 -31 -25 -18 -9 -6 -12 -21
-0 -0 -0 -0 -3 -30 -59 -0 -0 -0 -0 -0 -0 -5 -2 -4 -3 -3 -4 -8 -11 -11
-7 -0 -0 -0 -0 -7 -0 -0 -0 -0 -0 -0 -0 -68 -109 -246 -5 -3 -8 -8 -18 -160
-11 -16 -11 -1 -0 -1 -13 -0 -0 -0 -21 -0 -8 -0 -0 -0 -14 -17 -37 -33 -91 -0
-13 -4 -4 -0 -3 -8 -8 -19 -0 -0 -0 -8 -23 -9 -0 -0 -0 -20 -33 -50 -98 -95
-50 -22 -0 -0 -26 -34 -18 -7 -9 -58 -30 -38 -30 -65 -0 -0 -0 -26 -19 -21 -7 -27
-1 -13 -1 -0 -0 -28 -45 -5 -5 -9 -52 -41 -10 -55 -71 -0 -0 -0 -29 -7 -10 -21
-1 -1 -1 -1 -0 -0 -0 -0 -0 -4 -4 -10 -14 -53 -72 -11 -0 -0 -37 -4 -4 -4
Wind_Speed
33 36 37 37 37 38 41 43 49 46 40 39 41 30 30 28 29 28 26 25 24 23
35 36 37 37 40 42 43 44 49 60 49 34 20 44 31 27 29 30 28 27 25 23
33 36 36 37 40 40 42 47 49 52 53 36 28 37 31 30 31 28 33 33 20 18
35 34 36 35 37 38 40 43 48 54 55 50 39 37 36 39 35 30 38 44 22 13
31 32 36 37 38 38 40 40 43 47 57 53 49 46 39 45 43 23 26 28 21 12
33 35 34 37 38 37 37 40 43 45 50 55 52 37 37 34 33 30 42 18 16 16
37 39 41 41 41 40 38 40 45 47 52 64 34 27 30 29 26 26 20 17 16 16
39 43 46 48 44 41 39 35 37 40 46 53 39 28 25 24 22 19 19 18 16 15
39 42 44 48 51 43 40 36 33 38 42 41 39 32 19 25 16 18 18 17 16 14
41 45 47 47 49 51 39 38 31 39 42 37 37 19 9 26 12 15 17 19 19 18
40 43 50 53 51 49 48 37 36 36 42 47 36 19 12 22 17 16 12 14 15 19
40 46 42 48 53 50 50 43 35 38 34 35 37 26 16 15 18 19 13 14 12 14
32 33 36 36 48 49 48 45 41 41 40 33 37 30 22 19 22 14 24 12 18 16
30 28 27 34 35 46 47 46 43 41 41 38 34 29 24 22 18 17 22 17 15 22
Wind_Direction
299 296 292 289 285 283 279 277 279 282 277 242 243 246 249 250 253 250 246 254 261 268
305 304 295 291 288 284 281 280 276 276 284 276 283 268 256 251 248 252 252 256 255 258
310 307 304 302 293 288 285 279 278 277 276 276 262 244 250 252 247 251 260 261 253 251
309 310 309 306 302 299 295 288 279 275 275 274 266 261 263 258 264 265 278 257 264 272
313 310 307 306 305 302 299 295 290 285 276 274 269 267 263 279 258 269 246 246 256 261
313 311 309 306 305 306 305 299 292 287 283 289 266 259 260 255 261 264 254 251 264 274
308 308 305 303 303 302 302 302 295 283 283 282 266 251 250 250 253 252 260 265 265 273
303 302 299 296 298 301 302 299 301 292 281 279 291 257 243 248 250 259 266 270 272 281
298 298 298 294 291 295 298 296 299 292 273 283 277 279 268 263 236 258 266 275 278 282
300 298 295 293 291 284 291 292 293 285 274 271 268 277 290 264 269 259 265 270 274 281
301 299 296 286 285 284 281 285 287 283 273 254 266 285 284 275 280 279 269 268 271 267
299 298 293 288 278 278 273 279 280 275 273 257 257 266 272 273 275 285 273 265 262 262
296 294 288 286 279 273 269 270 275 267 262 264 256 257 262 266 260 269 257 252 254 254
291 286 281 286 285 269 265 265 266 266 258 260 259 258 254 250 243 246 261 249 255 253